Time,TemperatureF,DewpointF,PressureIn,WindDirection,WindDirectionDegrees,WindSpeedMPH,WindSpeedGustMPH,Humidity,HourlyPrecipIn,Conditions,Clouds,dailyrainin,SoftwareType,DateUTC
2013-10-05 00:14:00,55.0,47.0,30.24,East,83,4.0,-999.0,74,-99.99,,,-99.99,,2013-10-05 04:14:00,
2013-10-05 00:24:00,55.0,47.0,30.24,ENE,76,3.0,-999.0,74,-99.99,,,-99.99,,2013-10-05 04:24:00,
2013-10-05 00:44:00,55.0,47.0,30.25,NE,46,3.0,-999.0,74,-99.99,,,-99.99,,2013-10-05 04:44:00,
2013-10-05 00:53:00,55.0,47.0,30.24,ENE,57,4.0,-999.0,74,-99.99,,,-99.99,,2013-10-05 04:53:00,
2013-10-05 01:13:00,55.0,47.0,30.24,ENE,76,3.0,-999.0,74,-99.99,,,-99.99,,2013-10-05 05:13:00,
2013-10-05 01:22:00,55.0,47.0,30.24,ENE,65,4.0,-999.0,74,-99.99,,,-99.99,,2013-10-05 05:22:00,
2013-10-05 01:43:00,54.0,46.0,30.24,NE,51,4.0,-999.0,75,-99.99,,,-99.99,,2013-10-05 05:43:00,
2013-10-05 01:52:00,54.0,46.0,30.24,ENE,57,4.0,-999.0,74,-99.99,,,-99.99,,2013-10-05 05:52:00,
2013-10-05 02:12:00,54.0,45.0,30.24,ENE,72,5.0,-999.0,72,-99.99,,,-99.99,,2013-10-05 06:12:00,
2013-10-05 02:22:00,54.0,45.0,30.24,East,84,2.0,-999.0,72,-99.99,,,-99.99,,2013-10-05 06:22:00,
2013-10-05 02:43:00,54.0,45.0,30.24,East,91,1.0,-999.0,72,-99.99,,,-99.99,,2013-10-05 06:43:00,
2013-10-05 02:52:00,54.0,45.0,30.25,SE,128,0.0,-999.0,72,-99.99,,,-99.99,,2013-10-05 06:52:00,
2013-10-05 03:12:00,54.0,45.0,30.25,ENE,60,2.0,-999.0,71,-99.99,,,-99.99,,2013-10-05 07:12:00,
2013-10-05 03:22:00,53.0,43.0,30.24,East,86,3.0,-999.0,70,-99.99,,,-99.99,,2013-10-05 07:22:00,
2013-10-05 03:42:00,53.0,43.0,30.23,ENE,69,5.0,-999.0,70,-99.99,,,-99.99,,2013-10-05 07:42:00,
2013-10-05 03:52:00,53.0,43.0,30.23,ENE,76,5.0,-999.0,70,-99.99,,,-99.99,,2013-10-05 07:52:00,
2013-10-05 04:12:00,53.0,44.0,30.22,ENE,74,5.0,-999.0,71,-99.99,,,-99.99,,2013-10-05 08:12:00,
2013-10-05 04:23:00,51.0,43.0,30.22,ENE,68,5.0,-999.0,74,-99.99,,,-99.99,,2013-10-05 08:23:00,
2013-10-05 04:42:00,51.0,43.0,30.23,ENE,75,6.0,-999.0,75,-99.99,,,-99.99,,2013-10-05 08:42:00,
2013-10-05 04:52:00,51.0,43.0,30.23,ENE,65,6.0,-999.0,73,-99.99,,,-99.99,,2013-10-05 08:52:00,
2013-10-05 05:12:00,51.0,42.0,30.24,NE,50,5.0,-999.0,72,-99.99,,,-99.99,,2013-10-05 09:12:00,
2013-10-05 05:22:00,50.0,42.0,30.24,NE,46,5.0,-999.0,75,-99.99,,,-99.99,,2013-10-05 09:22:00,
2013-10-05 05:43:00,49.0,43.0,30.25,ENE,65,4.0,-999.0,80,-99.99,,,-99.99,,2013-10-05 09:43:00,
2013-10-05 05:54:00,49.0,43.0,30.26,East,81,1.0,-999.0,80,-99.99,,,-99.99,,2013-10-05 09:54:00,
2013-10-05 06:12:00,49.0,43.0,30.25,ENE,65,1.0,-999.0,80,-99.99,,,-99.99,,2013-10-05 10:12:00,
2013-10-05 06:23:00,49.0,42.0,30.26,SE,134,2.0,-999.0,76,-99.99,,,-99.99,,2013-10-05 10:23:00,
2013-10-05 06:43:00,49.0,42.0,30.25,East,92,1.0,-999.0,77,-99.99,,,-99.99,,2013-10-05 10:43:00,
2013-10-05 06:53:00,49.0,41.0,30.24,ENE,68,3.0,-999.0,75,-99.99,,,-99.99,,2013-10-05 10:53:00,
2013-10-05 07:12:00,50.0,41.0,30.24,East,87,3.0,-999.0,72,-99.99,,,-99.99,,2013-10-05 11:12:00,
2013-10-05 07:22:00,50.0,41.0,30.25,East,84,4.0,-999.0,70,-99.99,,,-99.99,,2013-10-05 11:22:00,
2013-10-05 07:43:00,50.0,41.0,30.24,ESE,113,5.0,-999.0,70,-99.99,,,-99.99,,2013-10-05 11:43:00,
2013-10-05 07:52:00,50.0,41.0,30.24,ENE,66,5.0,-999.0,70,-99.99,,,-99.99,,2013-10-05 11:52:00,
2013-10-05 08:12:00,50.0,40.0,30.24,East,86,6.0,-999.0,68,-99.99,,,-99.99,,2013-10-05 12:12:00,
2013-10-05 08:22:00,50.0,40.0,30.24,ENE,70,5.0,-999.0,68,-99.99,,,-99.99,,2013-10-05 12:22:00,
2013-10-05 08:42:00,50.0,40.0,30.24,ENE,69,6.0,-999.0,68,-99.99,,,-99.99,,2013-10-05 12:42:00,
2013-10-05 08:52:00,50.0,40.0,30.24,ENE,62,4.0,-999.0,68,-99.99,,,-99.99,,2013-10-05 12:52:00,
2013-10-05 09:12:00,50.0,40.0,30.24,East,79,6.0,-999.0,68,-99.99,,,-99.99,,2013-10-05 13:12:00,
2013-10-05 09:22:00,50.0,40.0,30.25,ESE,104,4.0,-999.0,68,-99.99,,,-99.99,,2013-10-05 13:22:00,
2013-10-05 09:42:00,50.0,40.0,30.25,ESE,108,3.0,-999.0,69,-99.99,,,-99.99,,2013-10-05 13:42:00,
2013-10-05 09:52:00,50.0,40.0,30.26,East,82,3.0,-999.0,69,-99.99,,,-99.99,,2013-10-05 13:52:00,
2013-10-05 10:12:00,49.0,40.0,30.26,ENE,71,2.0,-999.0,70,-99.99,,,-99.99,,2013-10-05 14:12:00,
2013-10-05 10:22:00,48.0,41.0,30.26,East,87,2.0,-999.0,78,-99.99,,,-99.99,,2013-10-05 14:22:00,
2013-10-05 10:42:00,47.0,42.0,30.27,ENE,70,2.0,-999.0,84,-99.99,,,-99.99,,2013-10-05 14:42:00,
2013-10-05 10:52:00,46.0,42.0,30.25,ENE,70,3.0,-999.0,87,-99.99,,,-99.99,,2013-10-05 14:52:00,
2013-10-05 11:12:00,46.0,43.0,30.24,East,86,4.0,-999.0,89,-99.99,,,-99.99,,2013-10-05 15:12:00,
2013-10-05 11:22:00,45.0,42.0,30.22,NE,51,7.0,-999.0,89,-99.99,,,-99.99,,2013-10-05 15:22:00,
2013-10-05 11:44:00,45.0,43.0,30.22,East,84,4.0,-999.0,91,-99.99,,,-99.99,,2013-10-05 15:44:00,
2013-10-05 11:53:00,46.0,43.0,30.21,East,84,5.0,-999.0,90,-99.99,,,-99.99,,2013-10-05 15:53:00,
2013-10-05 12:13:00,46.0,44.0,30.21,ESE,113,4.0,-999.0,91,-99.99,,,-99.99,,2013-10-05 16:13:00,
2013-10-05 12:24:00,46.0,44.0,30.20,East,91,5.0,-999.0,91,-99.99,,,-99.99,,2013-10-05 16:24:00,
2013-10-05 12:43:00,46.0,44.0,30.20,ENE,62,4.0,-999.0,91,-99.99,,,-99.99,,2013-10-05 16:43:00,
2013-10-05 12:53:00,47.0,45.0,30.22,East,98,1.0,-999.0,91,-99.99,,,-99.99,,2013-10-05 16:53:00,
2013-10-05 13:12:00,47.0,45.0,30.21,East,98,0.0,-999.0,91,-99.99,,,-99.99,,2013-10-05 17:12:00,
2013-10-05 13:22:00,48.0,45.0,30.20,NE,53,2.0,-999.0,91,-99.99,,,-99.99,,2013-10-05 17:22:00,
2013-10-05 13:42:00,48.0,45.0,30.21,East,84,4.0,-999.0,90,-99.99,,,-99.99,,2013-10-05 17:42:00,
2013-10-05 13:52:00,48.0,45.0,30.20,ESE,107,4.0,-999.0,89,-99.99,,,-99.99,,2013-10-05 17:52:00,
2013-10-05 14:12:00,48.0,45.0,30.20,East,84,4.0,-999.0,89,-99.99,,,-99.99,,2013-10-05 18:12:00,
2013-10-05 14:22:00,48.0,45.0,30.20,East,82,4.0,-999.0,89,-99.99,,,-99.99,,2013-10-05 18:22:00,
2013-10-05 14:42:00,48.0,45.0,30.19,ENE,78,4.0,-999.0,88,-99.99,,,-99.99,,2013-10-05 18:42:00,
2013-10-05 14:52:00,49.0,46.0,30.18,East,88,5.0,-999.0,88,-99.99,,,-99.99,,2013-10-05 18:52:00,
2013-10-05 15:11:00,49.0,45.0,30.18,East,80,5.0,-999.0,87,-99.99,,,-99.99,,2013-10-05 19:11:00,
2013-10-05 15:22:00,49.0,45.0,30.19,ESE,103,4.0,-999.0,86,-99.99,,,-99.99,,2013-10-05 19:22:00,
2013-10-05 15:42:00,49.0,45.0,30.18,ENE,70,6.0,-999.0,85,-99.99,,,-99.99,,2013-10-05 19:42:00,
2013-10-05 15:52:00,50.0,45.0,30.17,ENE,78,8.0,-999.0,84,-99.99,,,-99.99,,2013-10-05 19:52:00,
2013-10-05 16:11:00,50.0,45.0,30.17,ENE,71,7.0,-999.0,83,-99.99,,,-99.99,,2013-10-05 20:11:00,
2013-10-05 16:22:00,50.0,45.0,30.16,East,80,7.0,-999.0,83,-99.99,,,-99.99,,2013-10-05 20:22:00,
2013-10-05 16:42:00,50.0,45.0,30.15,NE,42,7.0,-999.0,83,-99.99,,,-99.99,,2013-10-05 20:42:00,
2013-10-05 16:52:00,50.0,45.0,30.15,NE,52,7.0,-999.0,83,-99.99,,,-99.99,,2013-10-05 20:52:00,
2013-10-05 17:12:00,50.0,45.0,30.15,ENE,59,7.0,-999.0,82,-99.99,,,-99.99,,2013-10-05 21:12:00,
2013-10-05 17:22:00,50.0,45.0,30.14,ENE,65,8.0,-999.0,82,-99.99,,,-99.99,,2013-10-05 21:22:00,
2013-10-05 17:44:00,50.0,45.0,30.15,NE,46,6.0,-999.0,82,-99.99,,,-99.99,,2013-10-05 21:44:00,
2013-10-05 17:54:00,50.0,45.0,30.14,East,98,5.0,-999.0,82,-99.99,,,-99.99,,2013-10-05 21:54:00,
2013-10-05 18:13:00,50.0,44.0,30.14,East,79,5.0,-999.0,81,-99.99,,,-99.99,,2013-10-05 22:13:00,
2013-10-05 18:24:00,50.0,44.0,30.16,East,91,4.0,-999.0,81,-99.99,,,-99.99,,2013-10-05 22:24:00,
2013-10-05 18:33:00,50.0,44.0,30.16,East,91,4.0,-999.0,81,-99.99,,,-99.99,,2013-10-05 22:33:00,
2013-10-05 18:42:00,50.0,44.0,30.16,East,91,4.0,-999.0,81,-99.99,,,-99.99,,2013-10-05 22:42:00,
2013-10-05 18:53:00,50.0,44.0,30.16,ENE,69,3.0,-999.0,81,-99.99,,,-99.99,,2013-10-05 22:53:00,
2013-10-05 19:13:00,49.0,44.0,30.15,East,90,5.0,-999.0,82,-99.99,,,-99.99,,2013-10-05 23:13:00,
2013-10-05 19:22:00,48.0,44.0,30.15,East,88,4.0,-999.0,86,-99.99,,,-99.99,,2013-10-05 23:22:00,
2013-10-05 19:43:00,48.0,45.0,30.14,East,83,5.0,-999.0,88,-99.99,,,-99.99,,2013-10-05 23:43:00,
2013-10-05 19:53:00,48.0,45.0,30.14,NE,53,6.0,-999.0,88,-99.99,,,-99.99,,2013-10-05 23:53:00,
2013-10-05 20:12:00,48.0,44.0,30.13,East,97,8.0,-999.0,87,-99.99,,,-99.99,,2013-10-06 00:12:00,
2013-10-05 20:23:00,47.0,44.0,30.13,NE,53,7.0,-999.0,88,-99.99,,,-99.99,,2013-10-06 00:23:00,
2013-10-05 20:43:00,48.0,45.0,30.12,ENE,71,6.0,-999.0,88,-99.99,,,-99.99,,2013-10-06 00:43:00,
2013-10-05 20:52:00,47.0,44.0,30.12,ENE,71,5.0,-999.0,88,-99.99,,,-99.99,,2013-10-06 00:52:00,
2013-10-05 21:11:00,47.0,44.0,30.12,East,96,6.0,-999.0,89,-99.99,,,-99.99,,2013-10-06 01:11:00,
2013-10-05 21:22:00,47.0,44.0,30.12,East,95,5.0,-999.0,90,-99.99,,,-99.99,,2013-10-06 01:22:00,
2013-10-05 21:42:00,47.0,44.0,30.12,ENE,71,5.0,-999.0,90,-99.99,,,-99.99,,2013-10-06 01:42:00,
2013-10-05 21:52:00,47.0,45.0,30.12,ENE,76,4.0,-999.0,91,-99.99,,,-99.99,,2013-10-06 01:52:00,
2013-10-05 22:12:00,47.0,45.0,30.12,East,79,3.0,-999.0,91,-99.99,,,-99.99,,2013-10-06 02:12:00,
2013-10-05 22:22:00,47.0,45.0,30.12,East,86,4.0,-999.0,92,-99.99,,,-99.99,,2013-10-06 02:22:00,
2013-10-05 22:42:00,47.0,45.0,30.11,East,90,4.0,-999.0,92,-99.99,,,-99.99,,2013-10-06 02:42:00,
2013-10-05 22:52:00,47.0,45.0,30.11,ESE,103,5.0,-999.0,92,-99.99,,,-99.99,,2013-10-06 02:52:00,
2013-10-05 23:12:00,47.0,45.0,30.11,East,97,4.0,-999.0,93,-99.99,,,-99.99,,2013-10-06 03:12:00,
2013-10-05 23:22:00,47.0,45.0,30.11,East,97,4.0,-999.0,93,-99.99,,,-99.99,,2013-10-06 03:22:00,
2013-10-05 23:44:00,47.0,45.0,30.11,ESE,105,5.0,-999.0,93,-99.99,,,-99.99,,2013-10-06 03:44:00,
2013-10-05 23:54:00,47.0,45.0,30.10,ENE,73,5.0,-999.0,93,-99.99,,,-99.99,,2013-10-06 03:54:00,